This is the latest recevied weather packets stored in our database for station/object KG0HG. If no packets are shown the sender has not sent any weather packets the latest 10 day(s).
| Time | Temp. | Humidity | Pressure | Rain* | Wind** | Luminosity | Snow |
|---|---|---|---|---|---|---|---|
| 1778159443 | 10° C | 79% | 1017.2 hPa | 0 mm | - | 18 W/m² | - |
| 1778159140 | 8.89° C | 81% | 1017.4 hPa | 0 mm | - | 17 W/m² | - |
| 1778158838 | 8.89° C | 81% | 1017.5 hPa | 0 mm | - | 16 W/m² | - |
| 1778158536 | 8.89° C | 82% | 1017.4 hPa | 0 mm | - | 16 W/m² | - |
| 1778158233 | 8.33° C | 84% | 1017.3 hPa | 0 mm | - | 16 W/m² | - |
| 1778157929 | 7.78° C | 86% | 1017.2 hPa | 0 mm | - | 15 W/m² | - |
| 1778157627 | 6.67° C | 88% | 1017.4 hPa | 0 mm | - | 15 W/m² | - |
| 1778157325 | 6.11° C | 89% | 1017.3 hPa | 0 mm | - | 13 W/m² | - |
| 1778157022 | 6.11° C | 89% | 1017.2 hPa | 0 mm | - | 13 W/m² | - |
| 1778156717 | 5.56° C | 90% | 1017.3 hPa | 0 mm | - | 12 W/m² | - |
| 1778156413 | 5.56° C | 90% | 1017.2 hPa | 0 mm | - | 12 W/m² | - |
| 1778156109 | 5° C | 90% | 1017.3 hPa | 0 mm | - | 11 W/m² | - |
| 1778155805 | 5° C | 89% | 1017.5 hPa | 0 mm | - | 10 W/m² | - |
| 1778155501 | 5° C | 89% | 1017.2 hPa | 0 mm | - | 9 W/m² | - |
| 1778155198 | 5° C | 88% | 1017.1 hPa | 0 mm | - | 8 W/m² | - |
| 1778154894 | 5.56° C | 88% | 1017.3 hPa | 0 mm | - | 6 W/m² | - |
| 1778154590 | 5.56° C | 87% | 1017.2 hPa | 0 mm | - | 7 W/m² | - |
| 1778154286 | 6.11° C | 86% | 1017.2 hPa | 0 mm | - | 5 W/m² | - |
| 1778153984 | 6.67° C | 85% | 1017.3 hPa | 0 mm | - | 4 W/m² | - |
| 1778153681 | 6.11° C | 88% | 1017.2 hPa | 0 mm | - | 3 W/m² | - |
| 1778153378 | 5° C | 91% | 1017.1 hPa | 0 mm | - | 2 W/m² | - |
| 1778153076 | 5° C | 90% | 1017.1 hPa | 0 mm | - | 1 W/m² | - |
| 1778152772 | 4.44° C | 90% | 1017.1 hPa | 0 mm | - | 0 W/m² | - |
| 1778152470 | 4.44° C | 89% | 1017.1 hPa | 0 mm | - | 0 W/m² | - |
| 1778152166 | 5° C | 89% | 1016.9 hPa | 0 mm | - | 0 W/m² | - |
* Rain latest hour (hover to see other rain measurements)
** Current wind speed in m/s (hover to see current wind gust speed)